User: anonymous   Login
Location: G�migny
(47.9646°N, 1.6950°E)
Time: 13:28:38
(UTC+00:00)
Language:

H-2A R/B - Orbit

View from above orbital plane
View from above orbital plane
View from above satellite
View from above satellite

Ground track
Ground track

The orbit data is extracted from the following two-line orbital elements,

1 27601U 02056E   19343.85690501 +.00000033 +00000-0 +26723-4 0  9993
2 27601 098.2533 024.1732 0073149 124.7171 048.1739 14.31921775887414
Epoch (UTC): 09 December 2019 20:33:56
Eccentricity: 0.0073149
inclination: 98.2533°
perigee height: 733 km
apogee height: 838 km
right ascension of ascending node: 24.1732°
argument of perigee: 124.7171°
revolutions per day: 14.31921775
mean anomaly at epoch: 48.1739°
orbit number at epoch: 88741

The dashed part of the orbit path shows where the satellite is in the earth's shadow,  

DLR